When you browse on this site, cookies collect data to enhance your experience and personalize the content and advertising you see.
Visit our Privacy Policy to learn more. By continuing to use the site, you agree to this use of cookies and data.
  • en France
  • Liste des pays
  • À 7 jours
  • Température de l'eau
  • Carte météo
  • Widgets météo
  • user-avatar
    Se connecter

    Météo par heure à Belize

    Ce jour, 27 Mai, Mercredi

    Heure Température Précipitation Vent Pression Humidité
    00:00 +28°C° 0.2 mm 3 m/s 757 mmHg 98%
    01:00 +28°C° 0.1 mm 3 m/s 757 mmHg 98%
    02:00 +28°C° 0.1 mm 4 m/s 757 mmHg 98%
    03:00 +28°C° 0.1 mm 5 m/s 756 mmHg 99%
    04:00 +28°C° 0.1 mm 5 m/s 757 mmHg 98%
    05:00 +29°C° 0.1 mm 6 m/s 757 mmHg 98%
    06:00 +29°C° 0.1 mm 6 m/s 757 mmHg 97%
    07:00 +30°C° 0.1 mm 5 m/s 757 mmHg 93%
    08:00 +32°C° 0.1 mm 5 m/s 758 mmHg 88%
    09:00 +33°C° 0.1 mm 4 m/s 758 mmHg 84%
    10:00 +34°C° 0 mm 5 m/s 758 mmHg 74%
    11:00 +36°C° 0 mm 5 m/s 758 mmHg 65%
    12:00 +39°C° 0 mm 5 m/s 757 mmHg 56%
    13:00 +37°C° 0 mm 5 m/s 757 mmHg 58%
    14:00 +36°C° 0 mm 5 m/s 756 mmHg 60%
    15:00 +36°C° 0 mm 6 m/s 756 mmHg 62%
    16:00 +34°C° 0.1 mm 6 m/s 756 mmHg 69%
    17:00 +33°C° 0.1 mm 5 m/s 756 mmHg 76%
    18:00 +30°C° 0.1 mm 5 m/s 757 mmHg 82%
    19:00 +30°C° 0.1 mm 5 m/s 757 mmHg 87%
    20:00 +29°C° 0.1 mm 5 m/s 758 mmHg 91%
    21:00 +28°C° 0.1 mm 5 m/s 758 mmHg 95%
    22:00 +28°C° 0.1 mm 5 m/s 758 mmHg 95%
    23:00 +28°C° 0.1 mm 5 m/s 758 mmHg 95%

    Demain, 28 Mai, Jeudi

    Heure Température Précipitation Vent Pression Humidité
    00:00 +28°C° 0.1 mm 5 m/s 758 mmHg 95%
    01:00 +28°C° 0.1 mm 5 m/s 758 mmHg 96%
    02:00 +28°C° 0.1 mm 6 m/s 757 mmHg 97%
    03:00 +28°C° 0.1 mm 6 m/s 757 mmHg 97%
    04:00 +28°C° 0.1 mm 6 m/s 757 mmHg 97%
    05:00 +28°C° 0.1 mm 6 m/s 757 mmHg 97%
    06:00 +28°C° 0.1 mm 5 m/s 758 mmHg 97%
    07:00 +29°C° 0.3 mm 6 m/s 758 mmHg 90%
    08:00 +30°C° 0.3 mm 6 m/s 759 mmHg 82%
    09:00 +33°C° 0.3 mm 6 m/s 759 mmHg 75%
    10:00 +33°C° 0.5 mm 6 m/s 759 mmHg 77%
    11:00 +33°C° 0.5 mm 6 m/s 758 mmHg 78%
    12:00 +33°C° 0.5 mm 6 m/s 758 mmHg 79%
    13:00 +33°C° 0.2 mm 6 m/s 758 mmHg 75%
    14:00 +34°C° 0.2 mm 6 m/s 757 mmHg 70%
    15:00 +34°C° 0.2 mm 7 m/s 757 mmHg 65%
    16:00 +33°C° 0.1 mm 6 m/s 757 mmHg 71%
    17:00 +32°C° 0.1 mm 6 m/s 757 mmHg 77%
    18:00 +30°C° 0.1 mm 6 m/s 758 mmHg 83%
    19:00 +29°C° 0 mm 6 m/s 758 mmHg 86%
    20:00 +28°C° 0 mm 7 m/s 758 mmHg 90%
    21:00 +27°C° 0 mm 7 m/s 759 mmHg 93%
    22:00 +27°C° 0.1 mm 6 m/s 759 mmHg 94%
    23:00 +27°C° 0.1 mm 6 m/s 759 mmHg 95%

    Après-demain, 29 Mai, Vendredi

    Heure Température Précipitation Vent Pression Humidité
    00:00 +27°C° 0.1 mm 5 m/s 759 mmHg 96%
    01:00 +27°C° 0.1 mm 5 m/s 758 mmHg 96%
    02:00 +27°C° 0.1 mm 5 m/s 758 mmHg 97%
    03:00 +27°C° 0.1 mm 5 m/s 757 mmHg 97%
    04:00 +27°C° 0.2 mm 5 m/s 757 mmHg 97%
    05:00 +27°C° 0.2 mm 5 m/s 758 mmHg 97%
    06:00 +27°C° 0.2 mm 4 m/s 758 mmHg 97%
    07:00 +29°C° 0 mm 4 m/s 758 mmHg 88%
    08:00 +30°C° 0 mm 4 m/s 758 mmHg 79%
    09:00 +33°C° 0 mm 4 m/s 759 mmHg 70%
    10:00 +34°C° 0 mm 4 m/s 758 mmHg 64%
    11:00 +35°C° 0 mm 4 m/s 758 mmHg 58%
    12:00 +36°C° 0 mm 4 m/s 758 mmHg 52%
    13:00 +36°C° 0.1 mm 5 m/s 758 mmHg 53%
    14:00 +35°C° 0.1 mm 5 m/s 757 mmHg 55%
    15:00 +35°C° 0.1 mm 5 m/s 757 mmHg 56%
    16:00 +34°C° 0 mm 5 m/s 757 mmHg 63%
    17:00 +32°C° 0 mm 5 m/s 757 mmHg 70%
    18:00 +30°C° 0 mm 5 m/s 757 mmHg 77%
    19:00 +29°C° 0 mm 5 m/s 757 mmHg 83%
    20:00 +28°C° 0 mm 5 m/s 758 mmHg 88%
    21:00 +27°C° 0 mm 5 m/s 758 mmHg 94%
    22:00 +27°C° 0.6 mm 5 m/s 758 mmHg 94%
    23:00 +27°C° 0.6 mm 5 m/s 758 mmHg 94%

    30 Mai, Samedi

    Heure Température Précipitation Vent Pression Humidité
    00:00 +27°C° 0.6 mm 5 m/s 758 mmHg 94%
    01:00 +27°C° 0.8 mm 5 m/s 758 mmHg 95%
    02:00 +27°C° 0.8 mm 4 m/s 757 mmHg 96%
    03:00 +26°C° 0.8 mm 4 m/s 757 mmHg 98%
    04:00 +27°C° 0.2 mm 4 m/s 757 mmHg 98%
    05:00 +27°C° 0.2 mm 4 m/s 757 mmHg 97%
    06:00 +27°C° 0.2 mm 4 m/s 757 mmHg 97%
    07:00 +28°C° 0.8 mm 4 m/s 757 mmHg 95%
    08:00 +29°C° 0.8 mm 5 m/s 758 mmHg 92%
    09:00 +30°C° 0.8 mm 5 m/s 758 mmHg 89%
    10:00 +30°C° 1 mm 5 m/s 758 mmHg 88%
    11:00 +30°C° 1 mm 5 m/s 757 mmHg 86%
    12:00 +30°C° 1 mm 4 m/s 757 mmHg 84%
    13:00 +30°C° 1 mm 4 m/s 757 mmHg 83%
    14:00 +30°C° 1 mm 4 m/s 756 mmHg 82%
    15:00 +30°C° 1 mm 4 m/s 756 mmHg 81%
    16:00 +29°C° 1.5 mm 4 m/s 756 mmHg 86%
    17:00 +28°C° 1.5 mm 4 m/s 756 mmHg 91%
    18:00 +27°C° 1.5 mm 4 m/s 756 mmHg 96%
    19:00 +26°C° 0.7 mm 4 m/s 757 mmHg 96%
    20:00 +26°C° 0.7 mm 5 m/s 757 mmHg 96%
    21:00 +26°C° 0.7 mm 5 m/s 757 mmHg 96%
    22:00 +26°C° 0.9 mm 5 m/s 757 mmHg 97%
    23:00 +26°C° 0.9 mm 5 m/s 757 mmHg 97%

    31 Mai, Dimanche

    Heure Température Précipitation Vent Pression Humidité
    00:00 +26°C° 0.9 mm 5 m/s 757 mmHg 97%
    01:00 +26°C° 1.3 mm 5 m/s 757 mmHg 97%
    02:00 +26°C° 1.3 mm 6 m/s 756 mmHg 97%
    03:00 +26°C° 1.3 mm 6 m/s 756 mmHg 98%
    04:00 +26°C° 2 mm 6 m/s 756 mmHg 98%
    05:00 +26°C° 2 mm 7 m/s 756 mmHg 98%
    06:00 +26°C° 2 mm 7 m/s 756 mmHg 98%
    07:00 +26°C° 1.5 mm 8 m/s 756 mmHg 98%
    08:00 +26°C° 1.5 mm 9 m/s 757 mmHg 98%
    09:00 +26°C° 1.5 mm 10 m/s 757 mmHg 97%
    10:00 +26°C° 1.2 mm 10 m/s 757 mmHg 97%
    11:00 +26°C° 1.2 mm 10 m/s 757 mmHg 97%
    12:00 +26°C° 1.2 mm 10 m/s 756 mmHg 97%
    13:00 +26°C° 1.1 mm 9 m/s 756 mmHg 97%
    14:00 +26°C° 1.1 mm 9 m/s 755 mmHg 97%
    15:00 +26°C° 1.1 mm 8 m/s 755 mmHg 97%
    16:00 +26°C° 2.5 mm 9 m/s 755 mmHg 98%
    17:00 +26°C° 2.5 mm 9 m/s 755 mmHg 98%
    18:00 +26°C° 2.5 mm 10 m/s 755 mmHg 98%
    19:00 +26°C° 2.3 mm 9 m/s 756 mmHg 98%
    20:00 +26°C° 2.3 mm 8 m/s 756 mmHg 98%
    21:00 +26°C° 2.3 mm 8 m/s 756 mmHg 98%
    22:00 +24°C° 2.7 mm 7 m/s 756 mmHg 98%
    23:00 +23°C° 2.7 mm 7 m/s 756 mmHg 98%

    1 Juin, Lundi

    Heure Température Précipitation Vent Pression Humidité
    00:00 +23°C° 2.7 mm 6 m/s 756 mmHg 99%
    01:00 +23°C° 2 mm 5 m/s 756 mmHg 99%
    02:00 +22°C° 2 mm 4 m/s 755 mmHg 98%
    03:00 +22°C° 2 mm 3 m/s 755 mmHg 98%
    04:00 +22°C° 0.5 mm 3 m/s 755 mmHg 98%
    05:00 +22°C° 0.5 mm 3 m/s 756 mmHg 98%
    06:00 +22°C° 0.5 mm 3 m/s 756 mmHg 98%
    07:00 +25°C° 0.1 mm 3 m/s 756 mmHg 90%
    08:00 +27°C° 0.1 mm 3 m/s 757 mmHg 82%
    09:00 +29°C° 0.1 mm 2 m/s 757 mmHg 73%
    10:00 +30°C° 0 mm 2 m/s 757 mmHg 66%
    11:00 +32°C° 0 mm 2 m/s 757 mmHg 58%
    12:00 +34°C° 0 mm 1 m/s 757 mmHg 51%
    13:00 +35°C° 0 mm 2 m/s 756 mmHg 52%
    14:00 +34°C° 0 mm 3 m/s 756 mmHg 53%
    15:00 +34°C° 0 mm 4 m/s 755 mmHg 54%
    16:00 +32°C° 0.2 mm 4 m/s 755 mmHg 68%
    17:00 +28°C° 0.2 mm 3 m/s 755 mmHg 82%
    18:00 +26°C° 0.2 mm 3 m/s 756 mmHg 97%
    19:00 +26°C° 0.7 mm 3 m/s 756 mmHg 97%
    20:00 +25°C° 0.7 mm 3 m/s 756 mmHg 96%
    21:00 +25°C° 0.7 mm 3 m/s 756 mmHg 96%
    22:00 +25°C° 0.3 mm 3 m/s 756 mmHg 96%
    23:00 +25°C° 0.3 mm 4 m/s 756 mmHg 96%
    Voir plus